Location: Nassau
(25.0830°N, 77.3500°W)
Time: 21:49:21
(UTC-04:00)

ISS - All Passes

Search period start: 26 April 2015 00:00
Search period end: 06 May 2015 00:00
Orbit: 395 x 402 km, 51.6° (Epoch: 26 April)

Date Brightness Start Highest point End Pass type
(mag) Time Alt. Az. Time Alt. Az. Time Alt. Az.
26 Apr - 10:51:15 10° SSW 10:54:26 62° SE 10:57:39 10° NE daylight
26 Apr - 19:02:09 10° N 19:04:13 16° NE 19:06:21 10° E daylight
26 Apr - 20:37:50 10° WNW 20:40:35 25° SW 20:43:17 10° S visible
27 Apr - 09:57:49 10° S 10:00:24 23° SE 10:03:02 10° ENE daylight
27 Apr - 11:34:26 10° W 11:36:44 17° NW 11:38:57 10° N daylight
27 Apr - 19:43:17 10° NW 19:46:31 71° SW 19:49:44 10° SE daylight
28 Apr - 10:39:22 10° WSW 10:42:26 39° NW 10:45:29 10° NNE daylight
28 Apr - 18:49:15 10° NNW 18:52:20 40° NE 18:55:24 10° ESE daylight
29 Apr - 09:45:01 10° SW 09:48:13 73° SE 09:51:27 10° NE daylight
29 Apr - 17:55:43 10° N 17:57:59 18° NE 18:00:18 10° E daylight
29 Apr - 19:31:41 10° WNW 19:34:18 22° SW 19:36:51 10° S daylight
30 Apr - 08:51:20 10° S 08:54:02 26° SE 08:56:48 10° ENE daylight
30 Apr - 10:28:19 10° W 10:30:24 16° NW 10:32:25 10° N daylight
30 Apr - 18:36:54 10° NW 18:40:07 60° SW 18:43:17 10° SSE daylight
01 May - 07:59:25 10° SE 07:59:50 10° SE 08:00:27 10° ESE daylight
01 May - 09:32:58 10° WSW 09:35:57 34° NW 09:38:57 10° NNE daylight
01 May - 17:42:41 10° NNW 17:45:48 46° NE 17:48:56 10° ESE daylight
02 May - 08:38:23 10° SW 08:41:36 84° SE 08:44:50 10° NE daylight
02 May - 16:48:55 10° N 16:51:21 19° NE 16:53:48 10° E daylight
02 May - 18:25:09 10° WNW 18:27:37 20° SW 18:30:00 10° S daylight
03 May - 07:44:28 10° S 07:47:17 29° SE 07:50:09 10° ENE daylight
03 May - 09:21:48 10° WNW 09:23:41 14° NW 09:25:28 10° N daylight
03 May - 17:30:08 10° NW 17:33:18 52° SW 17:36:26 10° SSE daylight
04 May - 06:51:51 10° SE 06:52:57 12° SE 06:54:12 10° ESE daylight
04 May - 08:26:10 10° WSW 08:29:04 31° NW 08:31:59 10° NNE daylight
04 May - 16:35:42 10° NNW 16:38:52 52° NE 16:42:02 10° SE daylight
05 May - 07:31:22 10° SW 07:34:35 85° NW 07:37:48 10° NE daylight
05 May - 15:41:45 10° N 15:44:17 21° NE 15:46:52 10° E daylight
05 May - 17:18:13 10° W 17:20:32 18° SW 17:22:44 10° S daylight
